Location: New Paltz
(41.7500°N, 74.0833°W)
Time: 05:58:59
(UTC-04:00)

Daily predictions for brighter satellites

Satellite Brightness Start Highest point End
(mag) Time Altitude Azimuth Time Altitude Azimuth Time Altitude Azimuth
Cosmos 2315 Rocket 4.4 00:13:51 59° N 00:13:51 59° N 00:18:53 10° N
Cosmos 2333 Rocket 3.7 00:21:20 30° WNW 00:21:57 30° NW 00:27:01 10° N
Cosmos 2237 Rocket 3.4 00:26:24 36° NW 00:26:24 36° NW 00:31:20 10° N
ATLAS CENTAUR R/B 4.4 00:31:51 12° NNE 00:31:51 12° NNE 00:32:10 10° NNE
Cosmos 2278 Rocket 3.9 00:24:56 10° NW 00:27:48 24° WNW 00:27:48 24° WNW
NOSS 3-1 (A) 4.5 00:29:36 37° WNW 00:30:29 39° NW 00:36:40 10° NNE
ATLAS 2AS CENTAUR R/B 3.3 00:32:49 56° ENE 00:32:49 56° ENE 00:39:25 10° NE
CZ-2C R/B 3.7 00:36:36 10° N 00:40:15 43° N 00:40:15 43° N
Cosmos 2184 Rocket 4.5 00:40:10 10° N 00:45:12 59° N 00:45:12 59° N
ATLAS 3B R/B 2.9 01:00:13 10° NNW 01:06:04 62° N 01:06:04 62° N
USA 238 DEB 3.9 01:16:58 10° NNW 01:23:52 68° NE 01:23:52 68° NE
USA 238 3.9 01:17:04 10° NNW 01:24:00 68° NE 01:24:00 68° NE
Cosmos 2154 Rocket 4.4 01:19:16 10° N 01:24:12 58° N 01:24:12 58° N
Cosmos 2369 Rocket 3.1 01:22:13 10° NNW 01:26:15 44° N 01:26:15 44° N
USA 215 3.5 01:34:15 10° NE 01:39:38 61° ENE 01:39:38 61° ENE
Cosmos 1943 Rocket 3.1 01:41:24 10° NNW 01:46:26 44° NE 01:46:26 44° NE
SL-16 R/B 4.1 01:46:54 21° NW 01:47:11 21° NW 01:51:26 10° N
ATLAS CENTAUR R/B 4.2 02:08:06 11° NNW 02:08:06 11° NNW 02:09:05 10° NNW
Cosmos 2181 Rocket 4.2 02:08:48 64° NW 02:08:48 64° NW 02:14:31 10° N
SL-16 R/B 4.2 02:06:35 15° ESE 02:10:22 27° ENE 02:15:24 10° N
Cosmos 2218 Rocket 4.1 02:05:08 10° N 02:10:48 72° NNE 02:10:48 72° NNE
USA 267 4.0 02:06:56 10° ESE 02:13:09 49° NNE 02:19:24 10° NW
Cosmos 2366 rocket 4.1 02:08:55 10° N 02:14:57 74° NE 02:14:57 74° NE
NOSS 3-4 (A) 3.7 02:22:20 61° E 02:22:20 61° E 02:28:15 10° NE
NOSS 3-4 (C) 3.7 02:22:26 60° E 02:22:26 60° E 02:28:21 10° NE
ATLAS 2AS CENTAUR R/B 4.1 02:20:12 29° WNW 02:23:00 37° NW 02:30:27 10° NNE
Meteor 2-21 4.5 02:17:01 10° N 02:22:52 76° NE 02:22:52 76° NE
Cosmos 864 Rocket 4.5 02:19:03 10° N 02:25:13 83° NE 02:25:13 83° NE
SL-8 Rocket 4.3 02:21:12 10° NNW 02:26:21 57° NW 02:26:21 57° NW
IRS-P3 4.4 02:29:58 10° NNE 02:34:45 64° ENE 02:34:45 64° ENE
NOSS 3-2 (A) 3.9 02:29:04 10° NW 02:36:38 86° WSW 02:38:59 51° SSE
Cosmos 1943 4.1 02:43:07 37° NW 02:43:07 37° NW 02:48:05 10° N
Cosmos 2112 Rocket 4.2 02:50:18 65° E 02:50:18 65° E 02:55:15 10° NNE
Aureole 1 Rocket 3.6 02:51:19 66° NE 02:51:19 66° NE 02:55:06 10° NNE
Nadezhda 3 Rocket 3.9 03:01:16 65° S 03:02:14 83° E 03:08:36 10° N
NPP 3.6 02:57:50 10° N 03:03:10 73° WNW 03:03:10 73° WNW
Lacrosse 5 rocket 3.0 03:05:58 29° ESE 03:05:58 29° ESE 03:09:31 10° ENE
Resurs 1-4 Rocket 2.6 03:02:27 10° NNE 03:07:36 52° E 03:08:31 47° SE
SL-08 R/B 4.0 03:12:21 42° NW 03:12:21 42° NW 03:15:45 10° NNW
Cosmos 2369 Rocket 4.4 03:07:23 10° NW 03:08:01 12° WNW 03:08:01 12° WNW
Spot 4 Rocket 4.1 03:07:38 10° NNE 03:12:48 69° ESE 03:13:23 63° SE
Cosmos 1544 4.3 03:10:21 10° N 03:13:06 41° NNE 03:13:06 41° NNE
Cosmos 1805 4.1 03:10:10 10° N 03:13:40 49° ENE 03:13:40 49° ENE
Cosmos 1271 Rocket 3.9 03:10:40 10° N 03:14:11 37° ENE 03:14:12 37° ENE
CZ-2D R/B 2.3 03:12:36 10° NNE 03:17:53 64° ESE 03:18:55 52° SSE
Cosmos 2056 Rocket 4.2 03:13:49 10° N 03:19:04 54° ENE 03:23:16 15° SE
Cosmos 1812 Rocket 4.3 03:16:46 10° NNW 03:19:57 43° NW 03:19:57 43° NW
Cosmos 921 Rocket 4.2 03:18:20 10° N 03:22:38 43° ENE 03:25:38 18° SE
Cosmos 1680 Rocket 3.7 03:23:12 53° WNW 03:23:22 54° WNW 03:28:33 10° N
USA 215 4.2 03:17:32 10° NE 03:23:30 40° NNW 03:26:58 23° WNW
CBERS-1 4.3 03:19:08 10° N 03:24:04 51° WNW 03:24:07 51° WNW
RESURS DK-1 2.7 03:25:43 59° NNW 03:25:43 59° NNW 03:29:17 10° NNE
Cosmos 1842 3.7 03:28:16 54° N 03:28:16 54° N 03:31:22 10° N
COSMOS 2455 2.7 03:21:33 10° NW 03:27:33 69° WSW 03:29:08 48° S
ADEOS 3.5 03:24:49 10° NNE 03:30:04 83° ESE 03:31:11 56° S
Cosmos 1943 Rocket 3.8 03:25:41 10° NW 03:27:54 20° WNW 03:27:54 20° WNW
Meteor 1-4 Rocket 4.4 03:30:04 10° NNW 03:31:48 24° NW 03:31:48 24° NW
Cosmos 192 4.3 03:35:33 62° W 03:35:58 66° WNW 03:40:53 10° NNE
Cosmos 1953 Rocket 3.8 03:35:11 53° SSE 03:36:00 65° E 03:40:26 10° NNE
COSMOS 2406 3.2 03:35:40 54° WSW 03:36:54 69° WNW 03:42:39 10° NNE
NOSS 2-2 (E) 3.6 03:36:50 60° SE 03:37:07 62° ESE 03:41:42 10° NE
IRS-1D 3.5 03:31:59 10° NNE 03:37:12 82° WNW 03:38:23 55° SSW
Meteor 2-8 Rocket 4.5 03:41:08 46° SW 03:42:43 62° W 03:48:49 10° N
SL-27 R/B 2.9 03:43:36 56° NNW 03:43:36 56° NNW 03:46:39 10° NNE
MOZ.5/SAFIR/RUBIN 5/SL-8 4.3 03:40:23 16° SSE 03:43:56 57° ENE 03:48:32 10° N
NOSS 3-2 (C) 4.3 03:39:20 10° NW 03:46:27 44° WSW 03:50:12 28° SSW
ARIANE 5 R/B 2.5 03:43:10 10° N 03:48:24 70° WNW 03:49:48 47° SW
Cosmos 1821 Rocket 3.9 03:42:52 10° NNW 03:48:53 63° W 03:51:18 37° SSW
CZ-2D R/B 3.9 03:45:08 10° NNE 03:49:08 53° E 03:50:23 37° SSE
COBE Rocket 3.8 03:46:29 10° N 03:51:34 79° WNW 03:53:04 46° SSW
SL-16 R/B 2.7 03:51:39 38° SSW 03:53:39 51° W 03:59:39 10° NNW
Cosmos 1707 3.9 03:52:34 23° SSE 03:54:29 39° E 03:58:07 10° NNE
Cosmos 1371 Rocket 4.1 03:49:32 10° NNW 03:54:48 56° WSW 03:56:34 38° SSW
USA 267 3.2 03:49:41 10° SSE 03:56:05 56° SW 04:02:30 10° NW
ADEOS Rocket 3.1 03:51:06 10° N 03:57:03 65° WNW 04:00:01 33° SW
CENTAUR R/B 3.1 03:49:40 10° NW 03:57:37 90° NE 04:06:05 10° SSE
Cosmos 1825 Rocket 3.8 03:58:07 47° W 03:58:34 49° W 04:02:52 10° N
Cosmos 1470 3.0 03:57:32 10° N 04:01:27 68° E 04:03:45 23° SSE
Cosmos 1953 2.3 03:58:45 10° NNW 04:02:40 56° W 04:02:57 54° WSW
GEOS 3 Rocket 4.0 03:58:38 10° NNE 04:03:45 53° NW 04:05:55 32° WSW
Cosmos 1818 3.5 04:07:00 34° SSW 04:09:27 90° SE 04:14:57 10° NNE
Cosmos 1605 Rocket 3.9 04:03:18 10° N 04:09:32 81° W 04:15:39 10° S
Cosmos 1934 Rocket 4.1 04:04:51 10° NNW 04:10:58 55° W 04:14:55 23° SSW
COSMOS 2487 3.4 04:09:56 25° SSE 04:11:33 44° ESE 04:14:58 10° NNE
Okean O Rocket 3.3 04:09:00 10° NE 04:12:56 30° E 04:16:48 10° SSE
NOSS 2-2 (D) 3.5 04:11:50 42° WSW 04:13:07 70° NW 04:17:45 10° NNE
ADEOS II 3.6 04:08:56 10° NNE 04:13:41 34° E 04:18:24 10° SSE
Cosmos 1378 4.2 04:11:26 16° SSE 04:14:09 44° E 04:17:44 10° NNE
UNKNOWN OBJECT B 2.9 04:10:54 10° N 04:14:50 60° WNW 04:16:05 39° SW
Cosmos 839 Rocket 4.2 04:08:55 10° NNW 04:15:17 87° WSW 04:22:48 10° SSE
Cosmos 1339 Rocket 4.5 04:10:43 16° S 04:15:42 84° E 04:21:51 10° N
Cosmos 1758 4.1 04:15:27 10° NNW 04:19:05 31° W 04:19:10 31° W
NOSS 2-2 (C) 4.0 04:29:42 27° WSW 04:31:34 47° NW 04:36:09 10° NNE
Tiangong 1 0.6 04:33:01 42° W 04:33:47 71° SSW 04:36:37 10° ESE
PSLV R/B 4.2 04:31:29 10° NNE 04:35:34 68° E 04:39:41 10° S
Cosmos 1733 3.7 04:35:55 10° NNW 04:39:28 38° W 04:41:23 22° SSW
Cosmos 2100 Rocket 4.2 04:34:26 10° N 04:40:40 76° E 04:46:48 10° SSE
Cosmos 2098 Rocket 2.8 04:38:37 10° NNW 04:41:18 32° W 04:41:44 30° WSW
Cosmos 1697 Rocket 3.7 04:37:22 10° NNW 04:42:50 50° ENE 04:48:16 10° SE
Lacrosse 5 rocket 2.3 04:41:41 20° WSW 04:44:36 45° NW 04:49:05 10° NE
MOS 1 Rocket 3.4 04:42:06 10° N 04:46:17 49° WNW 04:49:34 16° SW
Delta 2 Rocket 3.9 04:45:44 23° SW 04:46:45 27° S 04:49:40 10° SE
Cosmos 389 Rocket 3.2 04:43:41 10° NNW 04:47:00 33° W 04:49:03 18° SSW
Resurs 1-4 Rocket 3.6 04:43:12 10° NNW 04:47:02 21° WNW 04:49:36 15° W
Cosmos 2278 3.6 04:41:26 10° NNW 04:47:09 75° WSW 04:52:50 10° SSE
Cosmos 2173 Rocket 4.2 04:41:39 10° N 04:47:59 80° E 04:54:11 10° S
USA 161 2.8 04:48:14 22° W 04:48:14 22° W 04:50:35 10° NW
Cosmos 1842 Rocket 3.5 04:45:56 10° N 04:50:21 84° W 04:54:47 10° S
Cosmos-2242 3.7 04:47:47 10° NNW 04:51:45 34° W 04:55:20 12° SSW
CZ-4B R/B 3.1 04:48:37 10° NNE 04:52:57 85° ESE 04:57:25 10° SSW
Cosmos 2369 3.7 04:48:56 10° NNW 04:54:38 66° WSW 05:00:18 10° S
CZ-2D R/B 3.8 04:53:58 10° NNW 04:57:24 18° WNW 05:00:16 12° W
PSLV R/B 3.8 04:54:01 10° NNE 04:58:25 73° ESE 05:02:43 10° S
Meteor 2-5 Rocket 3.9 04:52:51 10° SSW 04:58:27 58° WNW 05:04:12 10° N
EO 1 Del DPAF 3.7 04:55:44 10° SSE 04:59:33 67° ENE 05:03:24 10° N
MTI 4.3 04:58:53 10° SSE 05:02:05 64° ENE 05:05:18 10° N
Cosmos 2061 Rocket 4.0 04:59:01 10° N 05:05:17 82° W 05:11:28 10° S
Cosmos 2221 3.0 05:07:05 10° N 05:11:21 65° E 05:15:35 10° SSE
Cosmos 2082 Rocket 2.3 05:09:09 10° SSW 05:14:51 71° WNW 05:20:34 10° NNE
Cosmos 1833 Rocket 2.7 05:10:28 10° SSW 05:16:04 75° WNW 05:21:42 10° NNE
Cosmos 1980 Rocket 3.0 05:10:55 10° NNW 05:16:32 57° ENE 05:22:06 10° SE
Cosmos 1674 4.4 05:13:11 10° SSE 05:16:39 35° E 05:20:10 10° NNE
DNEPR-1 R/B 4.2 05:13:10 10° NW 05:16:56 31° WSW 05:20:56 10° S
Meteor 2-1 Rocket 4.2 05:12:18 10° NNW 05:17:57 77° W 05:23:41 10° S
Cosmos 1656 3.7 05:14:47 10° NNW 05:20:07 58° WSW 05:25:25 10° S
Cosmos 158 Rocket 3.9 05:16:42 10° SSW 05:21:41 70° WNW 05:26:50 10° NNE
CZ-4B R/B 3.2 05:16:48 10° N 05:22:10 70° WNW 05:27:26 10° SSW
PAYLOAD B 4.3 05:16:46 10° N 05:22:18 64° WNW 05:27:45 10° SSW
Okean-O 3.7 05:20:05 10° NNE 05:24:23 47° E 05:28:39 10° S
Cosmos 2123 Rocket 4.2 05:18:17 10° S 05:24:35 80° E 05:30:54 10° N
Orbus 7S? 2.9 05:21:54 10° WNW 05:24:41 40° SW 05:27:10 10° SSE
CZ-2C R/B 3.6 05:20:34 10° S 05:24:57 66° WSW 05:29:25 10° NNW
Cosmos 2016 Rocket 4.0 05:19:29 10° N 05:25:43 74° W 05:32:00 10° S
Meteor PRIRODA 3.7 05:24:37 10° NNE 05:28:21 85° ESE 05:32:02 10° SSW
EXPRESS MD2 2.8 05:25:17 10° WNW 05:29:31 57° SW 05:32:01 10° SE
Cosmos 972 Rocket 4.4 05:24:50 10° NNW 05:31:16 67° WSW 05:36:57 10° S
